This is the latest recevied weather packets stored in our database for station/object N5KR. If no packets are shown the sender has not sent any weather packets the latest 10 day(s).
| Time | Temp. | Humidity | Pressure | Rain* | Wind** | Luminosity | Snow |
|---|---|---|---|---|---|---|---|
| 1777464604 | 15.56° C | 75% | 1014.8 hPa | 0 mm | - | 5 W/m² | - |
| 1777458904 | 16.67° C | 70% | 1014.5 hPa | 0 mm | - | 0 W/m² | - |
| 1777456504 | 17.78° C | 71% | 1014.3 hPa | 0 mm | - | 0 W/m² | - |
| 1777454704 | 17.78° C | 74% | 1014 hPa | 0 mm | - | 0 W/m² | - |
| 1777453204 | 18.33° C | 77% | 1013.9 hPa | 0 mm | - | 0 W/m² | - |
| 1777451404 | 18.89° C | 79% | 1013.3 hPa | 0 mm | - | 0 W/m² | - |
| 1777450804 | 18.89° C | 79% | 1013.2 hPa | 0 mm | - | 0 W/m² | - |
| 1777450204 | 18.89° C | 79% | 1013 hPa | 0 mm | - | 0 W/m² | - |
| 1777448705 | 18.89° C | 79% | 1012.9 hPa | 0 mm | - | 0 W/m² | - |
| 1777446904 | 19.44° C | 79% | 1013.8 hPa | 0 mm | - | 0 W/m² | - |
| 1777446305 | 19.44° C | 79% | 1013.8 hPa | 0 mm | - | 0 W/m² | - |
| 1777445105 | 19.44° C | 79% | 1014 hPa | 0 mm | - | 0 W/m² | - |
| 1777444504 | 19.44° C | 79% | 1013.9 hPa | 0 mm | - | 0 W/m² | - |
| 1777443304 | 20° C | 78% | 1013.9 hPa | 0 mm | - | 0 W/m² | - |
| 1777440004 | 21.11° C | 79% | 1013.8 hPa | 0 mm | - | 0 W/m² | - |
| 1777437005 | 24.44° C | 88% | 1012.8 hPa | 0 mm | - | 0 W/m² | - |
| 1777431904 | 23.89° C | 90% | 1012.4 hPa | 0 mm | - | 0 W/m² | - |
| 1777431606 | 23.89° C | 90% | 1012.4 hPa | 0 mm | - | 0 W/m² | - |
| 1777430106 | 24.44° C | 89% | 1011.6 hPa | 0 mm | - | 0 W/m² | - |
| 1777428606 | 25° C | 88% | 1011 hPa | 0 mm | - | 0 W/m² | - |
| 1777424406 | 25.56° C | 85% | 1009.7 hPa | 0 mm | - | 0 W/m² | - |
| 1777421706 | 26.11° C | 83% | 1009.6 hPa | 0 mm | - | 63 W/m² | - |
| 1777419006 | 26.11° C | 86% | 1008.2 hPa | 0 mm | - | 104 W/m² | - |
| 1777417205 | 26.11° C | 84% | 1009.2 hPa | 0 mm | - | 17 W/m² | - |
| 1777416906 | 26.11° C | 84% | 1009.7 hPa | 0 mm | - | 10 W/m² | - |
* Rain latest hour (hover to see other rain measurements)
** Current wind speed in m/s (hover to see current wind gust speed)